Regional Weather Roundup
Issued by NWS

Home | Current Version | Previous Version | Text Only | Print | Product List | Glossary Off
Versions: 1 2 3 4 5 6 7 8 9 10 11 12 13 14 15 16 17 18 19 20 21 22 23 24 25 26 27 28 29 30 31 32 33 34 35 36 37 38 39 40 41 42 43 44 45 46 47 48 49 50

000
ASUS45 KPSR 240600
RWRAZ

ARIZONA HOURLY REGIONAL WEATHER ROUNDUP
NATIONAL WEATHER SERVICE PHOENIX AZ
1100 PM MST SAT MAY 23 2015

NOTE: FAIR INDICATES FEW OR NO CLOUDS BELOW 12,000 FEET WITH NO
SIGNIFICANT WEATHER AND/OR OBSTRUCTIONS TO VISIBILITY.

AZZ001>003-036-240700-
NORTHWEST ARIZONA

CITY           SKY/WX    TMP DP  RH WIND       PRES   REMARKS
KINGMAN        MOCLDY    63  37  38 S9        29.95S
6HR MIN TEMP:  63; 6HR MAX TEMP:  73;

$$

AZZ004>008-015-016-018-240700-
NORTH CENTRAL ARIZONA

CITY           SKY/WX    TMP DP  RH WIND       PRES   REMARKS
GRAND CANYON   CLOUDY    46  40  79 SW5       30.06S
6HR MIN TEMP:  45; 6HR MAX TEMP:  49; 6HR PCP:  0.01;

WILLIAMS       PTCLDY    46  34  61 S9        30.15S
PRESCOTT       CLEAR     52  33  48 NE3       30.04R
6HR MIN TEMP:  52; 6HR MAX TEMP:  64;

FLAGSTAFF      NOT AVBL
PAYSON         PTCLDY    52  34  50 CALM      30.07S
PAGE           RAIN      53  51  93 NE3       29.98R FOG
6HR MIN TEMP:  53; 6HR MAX TEMP:  61; 6HR PCP:  0.18;

$$

AZZ009>014-017-240700-
NORTHEAST ARIZONA

CITY           SKY/WX    TMP DP  RH WIND       PRES   REMARKS
WINSLOW        NOT AVBL
SAINT JOHNS    PTCLDY    51  30  44 W6        30.04R
6HR MIN TEMP:  51; 6HR MAX TEMP:  65;

WINDOW ROCK    CLOUDY    47  36  65 N8        30.06S
6HR MIN TEMP:  45; 6HR MAX TEMP:  59;

$$

AZZ023-240700-
GREATER PHOENIX AREA

CITY           SKY/WX    TMP DP  RH WIND       PRES   REMARKS
PHOENIX        CLEAR     74  41  30 SW5       29.89R
6HR MIN TEMP:  74; 6HR MAX TEMP:  82;

LUKE AFB       CLEAR     73  40  30 SW7       29.88S
6HR MIN TEMP:  72; 6HR MAX TEMP:  80;

DEER VALLEY    CLEAR     72  37  28 CALM      29.90S
6HR MIN TEMP:  72; 6HR MAX TEMP:  79;

SCOTTSDALE     CLEAR     72  39  30 CALM      29.92S
6HR MIN TEMP:  72; 6HR MAX TEMP:  79;

MESA-GATEWAY   PTCLDY    70  39  32 CALM      29.93S
$$

AZZ027-028-240700-
SOUTHWEST MARICOPA COUNTY AND PINAL COUNTY

CITY           SKY/WX    TMP DP  RH WIND       PRES   REMARKS
CASA GRANDE    CLEAR     68  37  32 W6        29.91S
6HR MIN TEMP:  66; 6HR MAX TEMP:  81;

GILA BEND      FAIR      72  42  33 SW12      29.90R
6HR MIN TEMP:  70; 6HR MAX TEMP:  82;

$$

AZZ503-504-507>509-240700-
SOUTHEAST ARIZONA

CITY           SKY/WX    TMP DP  RH WIND       PRES   REMARKS
TUCSON         CLEAR     67  31  26 W7        29.99R
6HR MIN TEMP:  66; 6HR MAX TEMP:  79;

DAVIS-MONTHAN  CLEAR     64  31  29 SW6       29.97R
6HR MIN TEMP:  64; 6HR MAX TEMP:  77;

NOGALES        CLEAR     56  32  40 CALM      30.04R
6HR MIN TEMP:  56; 6HR MAX TEMP:  74;

SIERRA VISTA   CLEAR     59  31  33 W8        30.07R
6HR MIN TEMP:  56; 6HR MAX TEMP:  72;

SAFFORD        CLEAR     63  28  26 NW10      29.96R
6HR MIN TEMP:  63; 6HR MAX TEMP:  79;

$$

AZZ020-021-025-026-031-240700-
SOUTHWEST ARIZONA

CITY           SKY/WX    TMP DP  RH WIND       PRES   REMARKS
YUMA           CLEAR     71  48  43 W7        29.92S
6HR MIN TEMP:  71; 6HR MAX TEMP:  85;

$$

CAZ031-033-041-043-047-048-061-240700-
SOUTHERN CALIFORNIA

CITY           SKY/WX    TMP DP  RH WIND       PRES   REMARKS
DOWNTOWN L.A.  MOCLDY    60  50  69 CALM      30.03F
6HR MIN TEMP:  60; 6HR MAX TEMP:  68;

L.A. AIRPORT   MOCLDY    57  52  83 W7        30.05S
6HR MIN TEMP:  57; 6HR MAX TEMP:  64;

SAN DIEGO      MOCLDY    63  51  65 NW6       30.07S
6HR MIN TEMP:  63; 6HR MAX TEMP:  66;

BURBANK        CLOUDY    60  50  69 S5        30.02F
6HR MIN TEMP:  60; 6HR MAX TEMP:  68;

ONTARIO        CLOUDY    59  51  75 W10       30.03S
6HR MIN TEMP:  59; 6HR MAX TEMP:  65;

RIVERSIDE      CLOUDY    60  52  74 VRB5      30.04R
6HR MIN TEMP:  60; 6HR MAX TEMP:  68;

PALM SPRINGS   CLEAR     71  48  43 NW23G30   29.90S
6HR MIN TEMP:  71; 6HR MAX TEMP:  81;

EL CENTRO NAS  CLEAR     67  47  48 SW10      29.92S
6HR MIN TEMP:  67; 6HR MAX TEMP:  83;

IMPERIAL       CLEAR     67  48  50 W13       29.89F
6HR MIN TEMP:  67; 6HR MAX TEMP:  83; 6HR PCP: TRACE;

BLYTHE         CLEAR     73  49  42 SW15      29.87S
6HR MIN TEMP:  73; 6HR MAX TEMP:  85;

$$

NVZ020-UTZ003-240700-
SOUTHERN NEVADA-UTAH

CITY           SKY/WX    TMP DP  RH WIND       PRES   REMARKS
LAS VEGAS      NOT AVBL
SALT LAKE CITY PTCLDY    52  45  77 CALM      29.96S
6HR MIN TEMP:  51; 6HR MAX TEMP:  59; 6HR PCP: TRACE;

$$

NMZ009-TXZ055-240700-
NEW MEXICO-WEST TEXAS

CITY           SKY/WX    TMP DP  RH WIND       PRES   REMARKS
ALBUQUERQUE    PTCLDY    59  29  31 NW9       29.99R
6HR MIN TEMP:  59; 6HR MAX TEMP:  70;

EL PASO        CLEAR     71  18  13 NW14      29.94R
6HR MIN TEMP:  71; 6HR MAX TEMP:  82;

$$


........................KEY........................
SKY/WX - SKY CONDITION/WEATHER
TMP    - TEMPERATURE IN FAHRENHEIT
DP     - DEW POINT IN FAHRENHEIT
RH     - RELATIVE HUMIDITY IN PERCENT
WIND   - DIRECTION AND SPEED IN MILES PER HOUR (MPH)
VRB    - VARIABLE WIND DIRECTION
PRES   - MEAN SEA LEVEL PRESSURE IN INCHES OF MERCURY
         F - FALLING PRESSURE   R - RISING PRESSURE
         S - STEADY PRESSURE
VSB    - VISIBILITY IN MILES
HX     - HEAT INDEX IN FAHRENHEIT
WCI    - WIND CHILL INDEX IN FAHRENHEIT
TC     - TEMPERATURE IN CELSIUS WHICH IS ALSO KNOWN AS
         TEMPERATURE IN CENTIGRADE
AFB    - AIR FORCE BASE
         LUKE AFB IS LUKE AIR FORCE BASE
         DAVIS-MONTHAN IS DAVIS-MONTHAN AIR FORCE BASE
NAS    - NAVAL AIR STATION
         EL CENTRO NAS IS EL CENTRO NAVAL AIR STATION
N/A    - NOT AVAILABLE




USA.gov is the U.S. government's official web portal to all federal, state and local government web resources and services.